Jackson County Reynolds Field
KJXN : now visible

Airfield :











YOU CAN JOIN US ON...

 
LOGIN :

Register | Disclaimer

   EN    FR    IT 

 









Legend :    VFR   Marginal VFR   IFR   Intensive IFR   Very Intensive IFR
Visi :
Ceiling :
>= 8 km
>= 3000ft
5 to 8 km
1000 to 3000 ft
1500m to 5 km
500 to 1000 ft
800 to 1500m
200 to 500 ft
< 800m
< 200 ft
Symbols :   Thunderstorms  Fog  Heavy snow  Heavy precipitations  Wind > 20 kt






- Airport Elevation : 1001 ft


KJXN - Jackson County Reynolds Field

CURRENT METAR :
  • 210156Z 02004KT 10SM OVC038 M09/M16 A3052 RMK AO2 SNE01 SLP356 P0000 T10891156

EXPIRED METARs :
  • 210056Z 33006KT 8SM -SN OVC037 M09/M16 A3051 RMK AO2 SNB52 SLP350 P0000 T10891156
  • 202356Z 35004KT 10SM OVC039 M08/M17 A3049 RMK AO2 SLP345 T10831167 11072 21083 51010

TAF KJXN
Valid from the 21 at 00:00 until the 22 at 00:00 UTC


202330Z 2100/2124 32005KT P6SM BKN035
FM210600 14004KT P6SM SCT035
KZOB FIR / North America



MET'MAP, your aeronautical weather chart ! - Copyright ORBIFLY December 2007 - Disclaimer

ORBIFLY MET'MAP TEAM :

Programming & Development : Alexandra Zaïnal
Concept & original design : Baudouin d'Aumeries
Assistance for programming : Marc-Olivier Méhu
Technical & hardware support : Manuel Goepfert

Contact : metmap@orbifly.com




SOURCES & CREDITS :

   NOAA       Earth
Advisory